TimeEST,TemperatureF,Dew PointF,Humidity,Sea Level PressureIn,VisibilityMPH,Wind Direction,Wind SpeedMPH,Gust SpeedMPH,PrecipitationIn,Events,Conditions,WindDirDegrees,DateUTC
12:14 AM,24.8,24.8,100,29.79,5.0,ENE,4.6,-,N/A,Snow,Light Snow,70,2013-02-23 05:14:00
12:55 AM,24.8,23.0,93,29.78,7.0,ENE,3.5,-,N/A,Snow,Light Snow,70,2013-02-23 05:55:00
1:14 AM,24.8,24.8,100,29.77,1.2,ENE,3.5,-,N/A,Snow,Light Snow,70,2013-02-23 06:14:00
1:35 AM,24.8,23.0,93,29.77,2.5,East,3.5,-,N/A,Snow,Light Snow,80,2013-02-23 06:35:00
2:14 AM,24.8,24.8,100,29.76,1.8,Calm,Calm,-,N/A,Snow,Light Snow,0,2013-02-23 07:14:00
2:35 AM,24.8,24.8,100,29.76,2.5,Calm,Calm,-,N/A,Snow,Light Snow,0,2013-02-23 07:35:00
2:54 AM,24.8,23.0,93,29.75,2.5,Calm,Calm,-,N/A,Snow,Light Snow,0,2013-02-23 07:54:00
3:15 AM,24.8,23.0,93,29.75,7.0,Calm,Calm,-,N/A,Snow,Light Snow,0,2013-02-23 08:15:00
3:35 AM,24.8,23.0,93,29.74,3.0,Calm,Calm,-,N/A,Snow,Light Snow,0,2013-02-23 08:35:00
3:54 AM,24.8,21.2,86,29.74,3.0,Calm,Calm,-,N/A,Snow,Light Snow,0,2013-02-23 08:54:00
4:15 AM,24.8,21.2,86,29.74,3.0,Calm,Calm,-,N/A,Snow,Light Snow,0,2013-02-23 09:15:00
4:34 AM,24.8,23.0,93,29.73,2.5,Calm,Calm,-,N/A,Snow,Light Snow,0,2013-02-23 09:34:00
4:54 AM,24.8,23.0,93,29.73,3.0,Calm,Calm,-,N/A,Snow,Light Snow,0,2013-02-23 09:54:00
5:15 AM,24.8,21.2,86,29.73,5.0,Calm,Calm,-,N/A,Snow,Light Snow,0,2013-02-23 10:15:00
5:34 AM,24.8,21.2,86,29.73,7.0,Calm,Calm,-,N/A,Snow,Light Snow,0,2013-02-23 10:34:00
5:55 AM,24.8,21.2,86,29.73,10.0,Calm,Calm,-,N/A,,Overcast,0,2013-02-23 10:55:00
6:14 AM,24.8,23.0,93,29.73,10.0,SSE,3.5,-,N/A,,Overcast,160,2013-02-23 11:14:00
6:34 AM,24.8,23.0,93,29.73,5.0,SSE,3.5,-,N/A,,Overcast,150,2013-02-23 11:34:00
6:55 AM,24.8,23.0,93,29.73,2.5,SSE,3.5,-,N/A,Snow,Light Snow,160,2013-02-23 11:55:00
7:14 AM,24.8,23.0,93,29.73,3.0,Calm,Calm,-,N/A,Snow,Light Snow,0,2013-02-23 12:14:00
7:35 AM,24.8,23.0,93,29.73,3.0,Calm,Calm,-,N/A,Snow,Light Snow,0,2013-02-23 12:35:00
7:55 AM,24.8,23.0,93,29.73,1.5,Calm,Calm,-,N/A,Snow,Light Snow,0,2013-02-23 12:55:00
8:14 AM,24.8,24.8,100,29.73,1.2,SSE,3.5,-,N/A,Snow,Light Snow,150,2013-02-23 13:14:00
8:35 AM,24.8,24.8,100,29.73,1.8,SSE,3.5,-,N/A,Snow,Light Snow,160,2013-02-23 13:35:00
8:54 AM,24.8,24.8,100,29.73,2.5,SSE,3.5,-,N/A,Snow,Light Snow,150,2013-02-23 13:54:00
9:15 AM,26.6,24.8,93,29.73,5.0,SSE,3.5,-,N/A,Snow,Light Snow,160,2013-02-23 14:15:00
9:35 AM,26.6,24.8,93,29.73,10.0,South,4.6,-,N/A,,Overcast,170,2013-02-23 14:35:00
9:54 AM,28.4,26.6,93,29.73,10.0,SSW,5.8,-,N/A,,Overcast,200,2013-02-23 14:54:00
10:15 AM,28.4,26.6,93,29.73,10.0,South,5.8,-,N/A,,Overcast,190,2013-02-23 15:15:00
11:15 AM,28.4,26.6,93,29.74,10.0,South,8.1,-,N/A,,Overcast,180,2013-02-23 16:15:00
11:34 AM,30.2,26.6,86,29.74,10.0,SSW,5.8,-,N/A,,Overcast,210,2013-02-23 16:34:00
12:15 PM,30.2,24.8,80,29.74,10.0,South,9.2,-,N/A,,Overcast,190,2013-02-23 17:15:00
12:34 PM,30.2,24.8,80,29.74,10.0,SSW,5.8,-,N/A,,Overcast,210,2013-02-23 17:34:00
12:55 PM,30.2,24.8,80,29.73,10.0,South,12.7,-,N/A,,Overcast,170,2013-02-23 17:55:00
1:15 PM,28.4,24.8,86,29.73,10.0,South,12.7,-,N/A,,Mostly Cloudy,190,2013-02-23 18:15:00
1:34 PM,28.4,24.8,86,29.73,10.0,South,9.2,-,N/A,,Mostly Cloudy,190,2013-02-23 18:34:00
1:55 PM,28.4,24.8,86,29.73,10.0,SSW,9.2,-,N/A,,Scattered Clouds,200,2013-02-23 18:55:00
2:15 PM,28.4,24.8,86,29.74,10.0,South,9.2,-,N/A,,Mostly Cloudy,190,2013-02-23 19:15:00
2:34 PM,28.4,24.8,86,29.74,10.0,South,8.1,-,N/A,,Overcast,190,2013-02-23 19:34:00
2:55 PM,28.4,24.8,86,29.74,10.0,South,6.9,-,N/A,,Overcast,190,2013-02-23 19:55:00
3:14 PM,28.4,24.8,86,29.74,10.0,South,5.8,-,N/A,,Overcast,190,2013-02-23 20:14:00
3:35 PM,28.4,24.8,86,29.75,10.0,South,8.1,-,N/A,,Overcast,180,2013-02-23 20:35:00
3:54 PM,28.4,24.8,86,29.75,10.0,South,8.1,-,N/A,,Overcast,180,2013-02-23 20:54:00
4:14 PM,28.4,24.8,86,29.75,7.0,SSW,4.6,-,N/A,,Overcast,200,2013-02-23 21:14:00
4:34 PM,28.4,24.8,86,29.75,10.0,South,4.6,-,N/A,,Overcast,190,2013-02-23 21:34:00
4:54 PM,28.4,24.8,86,29.75,10.0,South,5.8,-,N/A,,Overcast,170,2013-02-23 21:54:00
5:15 PM,28.4,24.8,86,29.76,10.0,South,5.8,-,N/A,,Overcast,170,2013-02-23 22:15:00
5:34 PM,28.4,24.8,86,29.76,10.0,South,3.5,-,N/A,,Overcast,180,2013-02-23 22:34:00
5:55 PM,28.4,24.8,86,29.77,10.0,SSE,4.6,-,N/A,,Overcast,160,2013-02-23 22:55:00
6:13 PM,26.6,24.8,93,29.77,10.0,SE,4.6,-,N/A,,Overcast,140,2013-02-23 23:13:00
6:34 PM,24.8,23.0,93,29.78,10.0,SSE,5.8,-,N/A,,Mostly Cloudy,150,2013-02-23 23:34:00
6:55 PM,24.8,23.0,93,29.78,10.0,SSE,4.6,-,N/A,,Scattered Clouds,160,2013-02-23 23:55:00
7:14 PM,24.8,23.0,93,29.79,10.0,South,3.5,-,N/A,,Scattered Clouds,180,2013-02-24 00:14:00
7:35 PM,24.8,21.2,86,29.79,10.0,South,3.5,-,N/A,,Overcast,180,2013-02-24 00:35:00
7:54 PM,24.8,21.2,86,29.79,10.0,South,3.5,-,N/A,,Overcast,170,2013-02-24 00:54:00
8:15 PM,24.8,21.2,86,29.80,10.0,SSW,3.5,-,N/A,,Overcast,200,2013-02-24 01:15:00
8:35 PM,24.8,21.2,86,29.80,7.0,Calm,Calm,-,N/A,,Overcast,0,2013-02-24 01:35:00
8:54 PM,24.8,21.2,86,29.80,5.0,Calm,Calm,-,N/A,Snow,Light Snow,0,2013-02-24 01:54:00
9:15 PM,23.0,21.2,93,29.81,4.0,Calm,Calm,-,N/A,Snow,Light Snow,0,2013-02-24 02:15:00
9:35 PM,21.2,21.2,100,29.81,5.0,Calm,Calm,-,N/A,,Overcast,0,2013-02-24 02:35:00
9:54 PM,21.2,19.4,93,29.81,5.0,Calm,Calm,-,N/A,,Overcast,0,2013-02-24 02:54:00
10:15 PM,21.2,21.2,100,29.80,0.8,Calm,Calm,-,N/A,Snow,Light Snow,0,2013-02-24 03:15:00
10:34 PM,19.4,17.6,93,29.80,0.2,Calm,Calm,-,N/A,Snow,Light Snow,0,2013-02-24 03:34:00
10:54 PM,19.4,17.6,93,29.80,0.5,Calm,Calm,-,N/A,Fog,Light Freezing Fog,0,2013-02-24 03:54:00
11:15 PM,19.4,17.6,93,29.81,0.2,Calm,Calm,-,N/A,Fog,Light Freezing Fog,0,2013-02-24 04:15:00
11:34 PM,19.4,17.6,93,29.81,0.2,Calm,Calm,-,N/A,Fog,Light Freezing Fog,0,2013-02-24 04:34:00
11:55 PM,17.6,15.8,93,29.81,0.2,Calm,Calm,-,N/A,Fog,Light Freezing Fog,0,2013-02-24 04:55:00